Warroad, MN

5:08 PM CDT on August 23, 2017 (GMT -0500)
Warroad International-Carlson

Weather History for KRRT - March, 2013

Change the Weather History Date:

Wednesday, March 6, 2013

  Actual Average Record
Temperature  
Mean Temperature 12 °F -  
Max Temperature 23 °F 30 °F 48 °F (1987)
Min Temperature 0 °F 6 °F -30 °F (1955)
Degree Days  
Heating Degree Days 54    
Moisture  
Dew Point 5 °F    
Average Humidity 80    
Maximum Humidity 92    
Minimum Humidity 68    
Precipitation  
Precipitation 0.01 in - - ()
Sea Level Pressure  
Sea Level Pressure 30.37 in    
Wind  
Wind Speed 1 mph (East)    
Max Wind Speed 8 mph    
Max Gust Speed -    
Visibility 8 miles    
Events Rain    
Averages and records for this station are not official NWS values.
T = Trace of Precipitation, MM = Missing Value Source: NWS Daily Summary

Daily Weather History Graph

Daily Weather History Graph

Search for Another Location

Airport or City:

Trip Planner

Search our weather history database for the weather conditions in past years. The results will help you decide how hot, cold, wet, or windy it might be!

Date:

Astronomy

Mar. 06, 2013 Rise Set
Actual Time 6:52 AM CST 6:13 PM CST
Civil Twilight 6:21 AM CST 6:44 PM CST
Nautical Twilight 5:44 AM CST 7:21 PM CST
Astronomical Twilight 5:07 AM CST 7:58 PM CST
Moon 3:24 AM CST (3/6) 12:34 PM CST (3/6)
Length of Visible Light 12h 23m
Length of Day
11h 20m
Waning Crescent, 29% of the Moon is Illuminated
Mar 6
Waning Crescent
Mar 11
New
Mar 19
First Quarter
Mar 27
Full
Apr 2
Last Quarter

Hourly Weather History & Observations

Time (CST) Temp. Windchill Dew Point Humidity Pressure Visibility Wind Dir Wind Speed Gust Speed Precip Events Conditions
12:14 AM 5.0 °F - 1.4 °F 85% 30.37 in 10.0 mi Calm Calm - N/A   Clear
12:33 AM 5.0 °F - 1.4 °F 85% 30.37 in 10.0 mi Calm Calm - N/A   Clear
12:54 AM 3.2 °F - -0.4 °F 85% 30.37 in 10.0 mi Calm Calm - N/A   Clear
1:14 AM 1.4 °F -6.2 °F -2.2 °F 85% 30.37 in 10.0 mi NW 3.5 mph - N/A   Clear
1:34 AM -0.4 °F - -5.8 °F 78% 30.37 in 10.0 mi Calm Calm - N/A   Mostly Cloudy
1:54 AM 3.2 °F - -2.2 °F 78% 30.37 in 7.0 mi Calm Calm - N/A   Overcast
2:14 AM 1.4 °F - -4.0 °F 78% 30.38 in 4.0 mi Calm Calm - N/A   Overcast
2:34 AM -0.4 °F - -5.8 °F 78% 30.37 in 10.0 mi Calm Calm - N/A   Overcast
2:54 AM 3.2 °F - -0.4 °F 85% 30.38 in 10.0 mi Calm Calm - N/A   Overcast
3:14 AM 3.2 °F - -2.2 °F 78% 30.37 in 7.0 mi Calm Calm - N/A   Overcast
3:34 AM 3.2 °F - -0.4 °F 85% 30.37 in 10.0 mi Calm Calm - N/A Rain Light Freezing Rain
3:54 AM 6.8 °F - 1.4 °F 79% 30.37 in 10.0 mi Calm Calm - N/A Rain Light Freezing Rain
4:14 AM 6.8 °F - 3.2 °F 85% 30.37 in 10.0 mi Calm Calm - N/A Rain Light Freezing Rain
4:34 AM 6.8 °F - 3.2 °F 85% 30.37 in 10.0 mi Calm Calm - N/A Rain Light Freezing Rain
4:54 AM 8.6 °F - 3.2 °F 79% 30.38 in 10.0 mi Calm Calm - N/A Rain Light Freezing Rain
5:14 AM 6.8 °F - 3.2 °F 85% 30.38 in 1.8 mi Calm Calm - N/A Rain Light Freezing Rain
5:34 AM 5.0 °F - 1.4 °F 85% 30.39 in 4.0 mi Calm Calm - N/A   Light Freezing Rain
5:54 AM 5.0 °F - 1.4 °F 85% 30.40 in 7.0 mi Calm Calm - N/A Rain Light Freezing Rain
6:14 AM 6.8 °F - 1.4 °F 79% 30.40 in 10.0 mi Calm Calm - N/A Rain Light Freezing Rain
6:34 AM 3.2 °F - -0.4 °F 85% 30.41 in 10.0 mi Calm Calm - N/A Rain Light Freezing Rain
6:54 AM 5.0 °F - 1.4 °F 85% 30.41 in 5.0 mi Calm Calm - N/A Rain Light Freezing Rain
7:14 AM 5.0 °F - 1.4 °F 85% 30.42 in 7.0 mi Calm Calm - N/A Rain Light Freezing Rain
7:34 AM 6.8 °F - 1.4 °F 79% 30.42 in 10.0 mi Calm Calm - N/A Rain Light Freezing Rain
7:53 AM 6.8 °F - 3.2 °F 85% 30.42 in 10.0 mi Calm Calm - N/A Rain Light Freezing Rain
8:14 AM 8.6 °F - 3.2 °F 79% 30.42 in 7.0 mi Calm Calm - N/A Rain Light Freezing Rain
8:33 AM 8.6 °F - 5.0 °F 85% 30.42 in 10.0 mi Calm Calm - N/A Rain Light Freezing Rain
8:54 AM 10.4 °F - 6.8 °F 85% 30.42 in 10.0 mi Calm Calm - N/A Rain Light Freezing Rain
9:14 AM 12.2 °F - 8.6 °F 85% 30.42 in 10.0 mi Calm Calm - N/A   Overcast
9:33 AM 12.2 °F - 10.4 °F 92% 30.42 in 10.0 mi Calm Calm - N/A   Overcast
9:54 AM 15.8 °F - 10.4 °F 79% 30.42 in 10.0 mi Calm Calm - N/A   Overcast
10:14 AM 15.8 °F - 12.2 °F 86% 30.41 in 10.0 mi Calm Calm - N/A   Overcast
10:33 AM 17.6 °F - 12.2 °F 79% 30.41 in 10.0 mi Calm Calm - N/A   Mostly Cloudy
10:54 AM 17.6 °F - 12.2 °F 79% 30.41 in 10.0 mi Calm Calm - 0.01 in   Scattered Clouds
11:14 AM 17.6 °F - 12.2 °F 79% 30.41 in 10.0 mi Calm Calm - N/A   Clear
11:33 AM 17.6 °F 12.3 °F 12.2 °F 79% 30.41 in 10.0 mi South 3.5 mph - N/A   Clear
11:54 AM 17.6 °F 10.7 °F 12.2 °F 79% 30.40 in 10.0 mi SSE 4.6 mph - N/A   Clear
12:14 PM 17.6 °F 12.3 °F 14.0 °F 86% 30.40 in 10.0 mi SSE 3.5 mph - N/A   Clear
12:33 PM 19.4 °F - 15.8 °F 86% 30.39 in 10.0 mi Calm Calm - N/A   Clear
12:54 PM 19.4 °F - 15.8 °F 86% 30.39 in 10.0 mi Calm Calm - N/A   Clear
1:14 PM 19.4 °F - 14.0 °F 80% 30.39 in 10.0 mi Calm Calm - N/A   Clear
1:34 PM 21.2 °F - 14.0 °F 74% 30.37 in 10.0 mi Calm Calm - N/A   Clear
1:54 PM 21.2 °F - 14.0 °F 74% 30.37 in 10.0 mi Calm Calm - N/A   Clear
2:14 PM 23.0 °F 15.8 °F 14.0 °F 68% 30.35 in 10.0 mi East 5.8 mph - N/A   Clear
2:34 PM 21.2 °F 11.7 °F 12.2 °F 68% 30.34 in 10.0 mi East 8.1 mph - N/A   Clear
2:54 PM 21.2 °F 11.7 °F 12.2 °F 68% 30.34 in 10.0 mi ESE 8.1 mph - N/A   Clear
3:13 PM 21.2 °F 13.6 °F 12.2 °F 68% 30.35 in 10.0 mi East 5.8 mph - N/A   Clear
3:34 PM 21.2 °F 13.6 °F 12.2 °F 68% 30.35 in 10.0 mi East 5.8 mph - N/A   Clear
4:14 PM 21.2 °F 14.9 °F 12.2 °F 68% 30.34 in 10.0 mi East 4.6 mph - N/A   Clear
4:34 PM 19.4 °F 14.3 °F 12.2 °F 74% 30.34 in 10.0 mi East 3.5 mph - N/A   Clear
4:54 PM 19.4 °F 14.3 °F 12.2 °F 74% 30.34 in 10.0 mi East 3.5 mph - N/A   Clear
5:14 PM 19.4 °F 14.3 °F 12.2 °F 74% 30.34 in 10.0 mi ENE 3.5 mph - N/A   Clear
5:34 PM 19.4 °F - 12.2 °F 74% 30.34 in 10.0 mi Calm Calm - N/A   Clear
5:54 PM 17.6 °F - 10.4 °F 73% 30.34 in 10.0 mi Calm Calm - N/A   Clear
6:14 PM 15.8 °F - 10.4 °F 79% 30.34 in 10.0 mi Calm Calm - N/A   Clear
6:34 PM 15.8 °F - 10.4 °F 79% 30.34 in 10.0 mi Calm Calm - N/A   Clear
6:54 PM 12.2 °F - 8.6 °F 85% 30.34 in 10.0 mi Calm Calm - N/A   Clear
7:14 PM 12.2 °F - 8.6 °F 85% 30.34 in 10.0 mi Calm Calm - N/A   Clear
7:34 PM 10.4 °F - 6.8 °F 85% 30.35 in 10.0 mi Calm Calm - N/A   Clear
7:54 PM 8.6 °F - 3.2 °F 79% 30.35 in 10.0 mi Calm Calm - N/A   Clear
8:14 PM 8.6 °F - 3.2 °F 79% 30.35 in 10.0 mi Calm Calm - N/A   Clear
8:34 PM 8.6 °F - 3.2 °F 79% 30.34 in 10.0 mi Calm Calm - N/A   Clear
8:54 PM 3.2 °F - -0.4 °F 85% 30.34 in 10.0 mi Calm Calm - N/A   Clear
9:14 PM 5.0 °F - 1.4 °F 85% 30.35 in 10.0 mi Calm Calm - N/A   Clear
9:34 PM 6.8 °F - 1.4 °F 79% 30.34 in 0.8 mi Calm Calm - N/A   Mist
9:54 PM 3.2 °F - -0.4 °F 85% 30.34 in 5.0 mi Calm Calm - N/A   Scattered Clouds
10:14 PM 3.2 °F -4.2 °F -0.4 °F 85% 30.33 in 4.0 mi NE 3.5 mph - N/A   Scattered Clouds
10:34 PM 1.4 °F - -2.2 °F 85% 30.34 in 2.5 mi Calm Calm - N/A   Mostly Cloudy
10:54 PM 1.4 °F - -2.2 °F 85% 30.33 in 0.8 mi Calm Calm - N/A   Overcast
11:14 PM -0.4 °F -8.3 °F -5.8 °F 78% 30.33 in 0.5 mi East 3.5 mph - N/A   Haze
11:33 PM -0.4 °F - -5.8 °F 78% 30.32 in 0.5 mi Calm Calm - N/A   Haze
11:54 PM -0.4 °F - -4.0 °F 85% 30.33 in 0.8 mi Calm Calm - N/A   Overcast